Location: Bella Vista
(10.4257°N, 66.7174°W)
Time: 12:57:47
(UTC+00:00)

Daily predictions for brighter satellites

Satellite Brightness Start Highest point End
(mag) Time Altitude Azimuth Time Altitude Azimuth Time Altitude Azimuth
Cosmos 2056 Rocket 3.7 22:20:25 10° S 22:25:32 53° ESE 22:30:42 10° NNE
JB-3 4.1 22:23:28 10° NNE 22:27:15 77° E 22:31:00 10° S
SKYMED 2 4.0 22:23:06 10° N 22:27:23 67° WNW 22:31:42 10° SSW
Cosmos 1812 Rocket 4.4 22:26:44 10° SSW 22:30:56 53° W 22:35:08 10° N
TRACE 4.5 22:33:53 10° NNE 22:37:25 83° E 22:40:57 10° S
Maqsat-H 4.1 22:39:22 10° SW 22:41:51 14° SSW 22:43:53 10° SSE
Intelsat 5-2 Rocket 3.9 22:41:23 10° W 22:43:32 29° SSW 22:46:37 10° SE
SL-4 R/B 1.4 22:45:19 10° SSW 22:48:39 72° SE 22:51:06 17° NE
SL-16 R/B 2.4 22:43:48 10° NNW 22:49:26 78° WSW 22:55:04 10° S
Cosmos 1371 Rocket 4.2 22:44:21 10° SSW 22:49:29 76° WNW 22:54:41 10° N
ADEOS 4.2 22:44:56 10° SE 22:49:30 31° ENE 22:54:03 10° NNE
GPS 2-17 Rocket1 3.1 22:45:12 10° WNW 22:49:58 71° NNE 22:54:05 14° E
Hubble Space Telescope 2.8 22:49:51 10° N 22:51:23 12° NNE 22:52:10 11° NNE
Cosmos 1602 4.4 22:48:26 10° NNW 22:52:05 56° W 22:55:45 10° S
Cosmos 1666 4.3 22:51:29 10° NNW 22:54:43 34° W 22:57:57 10° SSW
BLOCK DM-SL R/B 4.2 22:52:24 10° WSW 22:56:18 32° S 23:00:28 11° ESE
Cosmos 1515 3.4 22:58:32 10° S 23:02:05 72° E 23:05:33 10° N
ARIANE 44LP R/B 3.4 22:56:49 10° WSW 23:02:11 35° S 23:03:44 18° SE
Cosmos 1943 3.9 22:58:33 10° NNE 23:03:22 29° ENE 23:08:12 10° SE
GPS 2-14 Rocket1 3.4 23:00:50 10° W 23:04:10 35° NNW 23:05:38 24° NNE
Cosmos 44 3.7 22:59:37 10° N 23:04:20 39° ENE 23:08:48 10° SE
ARIANE 44L R/B 2.7 23:03:29 10° WSW 23:05:40 46° S 23:09:11 17° ESE
Cosmos 2084 Rocket 3.6 23:03:09 10° NNW 23:06:58 65° WSW 23:10:56 10° SSE
CZ-4B R/B 3.6 23:06:24 10° SE 23:10:24 36° ENE 23:13:14 17° NNE
Radarsat Rocket 3.8 23:05:07 10° SSE 23:11:14 79° ENE 23:17:02 10° N
Cosmos 1023 Rocket 4.5 23:10:24 10° N 23:15:20 52° ENE 23:20:15 10° SSE
Meteor 1-29 4.0 23:13:38 10° SSE 23:14:46 22° SSE 23:14:46 22° SSE
Meteor 2-6 Rocket 4.3 23:11:13 10° S 23:16:53 58° E 23:21:39 15° NNE
Meteor 1-25 Rocket 4.4 23:18:56 10° N 23:24:28 72° W 23:29:59 10° S
H-2A ROCKET BODY 3.7 23:26:31 10° SW 23:27:55 13° SSW 23:29:55 10° SSE
Cosmos 2221 4.2 23:24:40 10° SSW 23:28:30 33° W 23:32:19 10° NNW
Delta 7925 Rocket 4.5 23:27:34 10° W 23:31:46 31° NNW 23:33:01 28° N
Cosmos 2266 Rocket 3.9 23:28:11 10° S 23:34:18 58° E 23:36:47 35° NNE
Cosmos 1553 Rocket 4.1 23:32:19 33° NE 23:34:37 47° E 23:40:27 10° SSE
YAOGAN 1 2.3 23:31:12 10° SSE 23:35:29 78° ENE 23:37:08 37° N
Meteor 2-7 Rocket 4.5 23:33:48 10° S 23:39:15 76° E 23:41:14 41° NNE
Cosmos 1140 Rocket 3.5 23:36:34 10° NNW 23:41:42 79° WSW 23:46:47 10° S
Cosmos 1378 3.7 23:40:28 10° SSW 23:43:16 49° SW 23:43:16 49° SW
Meteor 1-10 Rocket 4.2 23:43:52 10° S 23:49:37 69° E 23:50:08 65° ENE
Stardust Del rocket 4.2 23:42:38 10° WNW 23:49:26 51° N 23:49:26 51° N
Cosmos 1110 Rocket 3.9 23:48:24 10° SSW 23:53:35 84° WNW 23:54:05 73° N
